Laredo, TX

9:27 AM CST on February 09, 2016 (GMT -0600)
Laredo International

Weather History for KLRD - February, 2012

Change the Weather History Date:

Sunday, February 5, 2012

  Actual Average Record
Temperature  
Mean Temperature 50 °F 59 °F  
Max Temperature 54 °F 70 °F 95 °F (2008)
Min Temperature 46 °F 48 °F 27 °F (1989)
Degree Days  
Heating Degree Days 15 7  
Month to date heating degree days 18 38  
Since 1 July heating degree days 501 717  
Cooling Degree Days 0 2  
Month to date cooling degree days 22 6  
Year to date cooling degree days 65 34  
Moisture  
Dew Point 42 °F    
Average Humidity 72    
Maximum Humidity 86    
Minimum Humidity 57    
Precipitation  
Precipitation 0.01 in 0.03 in 1.17 in (1987)
Month to date precipitation 0.14 0.16  
Year to date precipitation 0.16 1.06  
Sea Level Pressure  
Sea Level Pressure 30.31 in    
Wind  
Wind Speed 10 mph (NNE)    
Max Wind Speed 20 mph    
Max Gust Speed 24 mph    
Visibility 9 miles    
Events Rain    
T = Trace of Precipitation, MM = Missing Value Source: NWS Daily Summary

Daily Weather History Graph

Daily Weather History Graph

Search for Another Location

Airport or City:

Trip Planner

Search our weather history database for the weather conditions in past years. The results will help you decide how hot, cold, wet, or windy it might be!

Date:

Astronomy

Feb. 05, 2012 Rise Set
Actual Time 7:22 AM CST 6:21 PM CST
Civil Twilight 6:57 AM CST 6:46 PM CST
Nautical Twilight 6:30 AM CST 7:13 PM CST
Astronomical Twilight 6:02 AM CST 7:41 PM CST
Moon 4:27 PM CST (2/5) 5:27 AM CST (2/5)
Length of Visible Light 11h 48m
Length of Day
10h 59m
Waxing Gibbous, 95% of the Moon is Illuminated
Feb 5
Waxing Gibbous
Feb 7
Full
Feb 14
Last Quarter
Feb 21
New
Feb 29
First Quarter

Hourly Weather History & Observations

Time (CST) Temp. Dew Point Humidity Pressure Visibility Wind Dir Wind Speed Gust Speed Precip Events Conditions
12:56 AM 52.9 °F 45.0 °F 74% 30.26 in 10.0 mi NE 16.1 mph - N/A   Overcast
1:56 AM 52.0 °F 43.9 °F 74% 30.27 in 10.0 mi NE 8.1 mph - N/A   Overcast
2:56 AM 52.0 °F 43.9 °F 74% 30.25 in 10.0 mi NNE 6.9 mph - 0.00 in Rain Light Rain
3:56 AM 52.0 °F 45.0 °F 77% 30.27 in 10.0 mi North 3.5 mph - 0.00 in   Overcast
4:56 AM 50.9 °F 45.9 °F 83% 30.27 in 4.0 mi NNW 4.6 mph - 0.01 in Rain Light Rain
5:35 AM 48.2 °F 44.6 °F 87% 30.28 in 10.0 mi NNE 17.3 mph - 0.00 in   Overcast
5:56 AM 48.9 °F 43.9 °F 83% 30.27 in 10.0 mi NE 11.5 mph - 0.00 in   Overcast
6:56 AM 48.9 °F 43.9 °F 83% 30.28 in 10.0 mi NE 9.2 mph - N/A   Overcast
7:56 AM 48.9 °F 45.0 °F 86% 30.32 in 10.0 mi NE 8.1 mph - N/A   Overcast
8:56 AM 50.0 °F 43.0 °F 77% 30.36 in 10.0 mi NE 13.8 mph - N/A   Overcast
9:56 AM 47.8 °F 41.9 °F 80% 30.36 in 5.0 mi NNE 16.1 mph - 0.00 in Rain Light Rain
10:56 AM 46.9 °F 41.9 °F 83% 30.40 in 10.0 mi NE 15.0 mph - 0.00 in   Overcast
11:56 AM 46.9 °F 41.9 °F 83% 30.40 in 10.0 mi NE 9.2 mph - N/A   Overcast
12:56 PM 48.9 °F 41.9 °F 77% 30.36 in 10.0 mi NNE 11.5 mph - N/A   Overcast
1:56 PM 50.0 °F 41.0 °F 71% 30.33 in 10.0 mi North 10.4 mph - N/A   Overcast
2:56 PM 52.0 °F 39.9 °F 63% 30.30 in 10.0 mi North 10.4 mph - N/A   Mostly Cloudy
3:56 PM 52.9 °F 38.8 °F 59% 30.28 in 10.0 mi NNE 13.8 mph - N/A   Scattered Clouds
4:56 PM 54.0 °F 38.8 °F 57% 30.27 in 6.0 mi North 10.4 mph - N/A   Haze
5:56 PM 54.0 °F 38.8 °F 57% 30.27 in 8.0 mi North 13.8 mph - N/A   Mostly Cloudy
6:56 PM 52.9 °F 38.8 °F 59% 30.29 in 10.0 mi North 10.4 mph - N/A   Overcast
7:56 PM 52.0 °F 37.9 °F 59% 30.31 in 10.0 mi North 9.2 mph - N/A   Overcast
8:56 PM 52.0 °F 37.9 °F 59% 30.33 in 10.0 mi NE 8.1 mph - N/A   Overcast
9:56 PM 52.0 °F 38.8 °F 61% 30.33 in 10.0 mi NNE 6.9 mph - N/A   Overcast
10:56 PM 50.9 °F 39.9 °F 66% 30.33 in 10.0 mi NNE 5.8 mph - N/A   Overcast
11:56 PM 50.9 °F 39.9 °F 66% 30.33 in 10.0 mi NNE 6.9 mph - N/A   Mostly Cloudy